Weather in Kedrovka

Russia / Sverdlovsk Oblast     57°00′10″N   60°46′22″E
temp.,
°C
wind,
m/s
gust,
m/s
humid.,
%
clouds,
%
prec.,
mm/h
press.,
hPa
HPBL,
m
27 february, sat
sat2723:00−26sse359940 0.0 102589
02:00−27se369924 0.0 1023118
05:00−27se399622 0.0 1022225
08:00−26se4119756 0.0 1020278
11:00−22se5119478 0.0 1018363
14:00−20se61193100 0.0 1016440
17:00−20se61296100 0.3 1015540
20:00−20ese51196100 0.6 1014601
28 february, sun
sun2823:00−18ese51195100 1.1 1012538
02:00−18e51195100 0.4 1010448
05:00−16ene51194100 0.6 1010473
08:00−16ene51095100 0.3 1009457
11:00−15ene5892100 0.6 1009498
14:00−14ne4791100 0.3 1009571
17:00−15ne4892100 0.4 1010523
20:00−17ne4895100 0.3 1012476
1 march, mon
mon123:00−18nne3896100 0.4 1013363
02:00−19nne3796100 0.1 1014353
05:00−20nne3797100 0.3 1016342
08:00−20n3697100 0.1 1017284
11:00−19n2493100 0.2 1018371
14:00−15n2384100 0.1 1018512
17:00−15n2389100 0.1 1018496
20:00−20n1110098 0.0 101820
2 march, tue
tue223:00−21wsw1110090 0.0 101920
02:00−22wsw229940 0.0 101820
05:00−22wsw229720 0.0 101720
08:00−23wsw23970 0.0 101624
11:00−16wsw24910 0.0 1015250
14:00−11sw248544 0.0 1013491
17:00−10ssw258770 0.0 1012615
20:00−16ssw239569 0.0 101127
3 march, wed
wed323:00−18ssw339468 0.0 101173
02:00−18s259576 0.0 101095
05:00−15s259488 0.0 1010138
08:00−16sse2596100 0.0 1009154
11:00−13se3494100 0.3 1009216
14:00−11se3592100 0.1 1008320
17:00−10se3694100 0.1 1008326
20:00−13se3697100 0.1 1008170